Карточка аэропорта UAAT

Внимание!
Информация на этой странице в стадии наполнения.
Если вы не увидели какой-то информации, или заметили неточность - пожалуйста сообщите нам!
Спасибо!
Команда RU-STAFF
Название аэропортаТалдыкорган
Название аэропорта (англ.)Taldykorgan
Превышение1946 ft. (593.1 m.)
Координаты45°6.9179999999999', 78°26.46'
Высота перехода10000ft
Эшелон переходаFL120
Коды ответчика3501-3517, 3401-3427
Зона ОрВДАлматы РПИ (UAAA)
Данные METARUAAT 281230Z 23005MPS 9999 FEW050CB BKN100 18/M01 Q1014 NOSIG RMK QFE709/0945
Проноз погоды (TAF)
NOTAMshow/hide NOTAM
AWOS   TABLE

Информация о ВПП


Диспетчерские позиции

Позывной Наименование органа УВД Частота
UAAT_TWRТалдыкорган-Вышка127.3



Спутниковое изображение